THA215 VTBS-VTSP

Flight info

Callsign THA215
Flight time 0h 56m
Altitude 34000
Route VANKO1J VANKO Y8 SAVSA SAVSA1C
Aircraft A21N/M-SDE2E3FGHIRWXY/LB1

Departure

Time 2026-05-05 07:41
Airport Suvarnabhumi Airport (VTBS)

Arrival

Time 2026-05-05 08:37
Airport Phuket International Airport (VTSP)
Time Latitude Longitude Altitude Speed Heading
2026-05-05 07:26 13.68933 100.75635 19 ft 0 kts 14°
2026-05-05 07:35 13.68921 100.75632 21 ft 4 kts 16°
2026-05-05 07:35 13.68895 100.75623 22 ft 4 kts 23°
2026-05-05 07:35 13.68872 100.75610 18 ft 4 kts 38°
2026-05-05 07:36 13.68856 100.75591 20 ft 5 kts 77°
2026-05-05 07:36 13.68855 100.75580 22 ft 2 kts 104°
2026-05-05 07:38 13.68854 100.75583 23 ft 2 kts 104°
2026-05-05 07:38 13.68848 100.75606 21 ft 6 kts 104°
2026-05-05 07:38 13.68834 100.75663 19 ft 10 kts 104°
2026-05-05 07:39 13.68812 100.75753 19 ft 17 kts 104°
2026-05-05 07:39 13.68889 100.75835 19 ft 23 kts
2026-05-05 07:39 13.69052 100.75875 19 ft 21 kts 27°
2026-05-05 07:39 13.69074 100.76013 18 ft 23 kts 122°
2026-05-05 07:40 13.68922 100.76040 20 ft 37 kts 196°
2026-05-05 07:40 13.68411 100.75906 20 ft 112 kts 194°
2026-05-05 07:40 13.67441 100.75648 19 ft 172 kts 194°
2026-05-05 07:40 13.66200 100.75312 406 ft 184 kts 195°
2026-05-05 07:41 13.64938 100.75058 1115 ft 187 kts 185°
2026-05-05 07:41 13.63614 100.75060 1716 ft 195 kts 173°
2026-05-05 07:41 13.62215 100.75197 2150 ft 215 kts 177°
2026-05-05 07:41 13.60647 100.75228 2698 ft 234 kts 178°
2026-05-05 07:42 13.58961 100.75374 3309 ft 253 kts 175°
2026-05-05 07:42 13.57184 100.75020 3881 ft 272 kts 205°
2026-05-05 07:42 13.55429 100.74190 4640 ft 279 kts 200°
2026-05-05 07:42 13.53607 100.73467 5503 ft 282 kts 199°
2026-05-05 07:43 13.51770 100.72741 6379 ft 283 kts 200°
2026-05-05 07:43 13.49920 100.71998 7183 ft 286 kts 200°
2026-05-05 07:43 13.48057 100.71244 8006 ft 289 kts 200°
2026-05-05 07:43 13.46174 100.70477 8809 ft 293 kts 200°
2026-05-05 07:44 13.44296 100.69709 9617 ft 296 kts 200°
2026-05-05 07:44 13.42353 100.68913 10205 ft 308 kts 201°
2026-05-05 07:44 13.40291 100.68068 10521 ft 329 kts 200°
2026-05-05 07:44 13.38100 100.67171 10805 ft 349 kts 201°
2026-05-05 07:45 13.35781 100.66219 11068 ft 368 kts 200°
2026-05-05 07:45 13.33342 100.65218 11310 ft 386 kts 201°
2026-05-05 07:45 13.30798 100.64174 11534 ft 402 kts 201°
2026-05-05 07:45 13.28161 100.63093 11851 ft 412 kts 201°
2026-05-05 07:46 13.25484 100.61995 12323 ft 416 kts 201°
2026-05-05 07:46 13.22779 100.60888 12815 ft 420 kts 201°
2026-05-05 07:46 13.20058 100.59772 13332 ft 423 kts 201°
2026-05-05 07:46 13.17319 100.58647 13827 ft 426 kts 201°
2026-05-05 07:47 13.14556 100.57515 14230 ft 428 kts 201°
2026-05-05 07:47 13.11777 100.56387 14635 ft 432 kts 201°
2026-05-05 07:47 13.08973 100.55250 15073 ft 435 kts 201°
2026-05-05 07:47 13.06149 100.54097 15520 ft 438 kts 201°
2026-05-05 07:48 13.03311 100.52935 15927 ft 441 kts 201°
2026-05-05 07:48 13.00486 100.51779 16276 ft 443 kts 201°
2026-05-05 07:48 12.97613 100.50605 16635 ft 446 kts 201°
2026-05-05 07:48 12.94719 100.49423 16979 ft 448 kts 201°
2026-05-05 07:49 12.91806 100.48235 17306 ft 451 kts 201°
2026-05-05 07:49 12.88874 100.47037 17675 ft 454 kts 201°
2026-05-05 07:49 12.85931 100.45835 18038 ft 456 kts 201°
2026-05-05 07:49 12.82976 100.44629 18359 ft 458 kts 201°
2026-05-05 07:50 12.80001 100.43414 18671 ft 460 kts 201°
2026-05-05 07:50 12.77018 100.42196 18989 ft 462 kts 202°
2026-05-05 07:50 12.74022 100.40974 19320 ft 464 kts 202°
2026-05-05 07:50 12.71016 100.39747 19677 ft 467 kts 202°
2026-05-05 07:51 12.68033 100.38529 20018 ft 469 kts 202°
2026-05-05 07:51 12.64990 100.37288 20351 ft 471 kts 202°
2026-05-05 07:51 12.61933 100.36042 20712 ft 474 kts 202°
2026-05-05 07:51 12.58863 100.34791 21129 ft 476 kts 202°
2026-05-05 07:52 12.55777 100.33534 21560 ft 480 kts 202°
2026-05-05 07:52 12.52661 100.32264 21951 ft 483 kts 202°
2026-05-05 07:52 12.49523 100.30986 22323 ft 486 kts 202°
2026-05-05 07:52 12.46371 100.29703 22674 ft 489 kts 202°
2026-05-05 07:53 12.43203 100.28414 22988 ft 491 kts 202°
2026-05-05 07:53 12.40019 100.27118 23283 ft 494 kts 202°
2026-05-05 07:53 12.36824 100.25818 23547 ft 496 kts 202°
2026-05-05 07:53 12.33605 100.24508 23791 ft 498 kts 202°
2026-05-05 07:54 12.30415 100.23213 24010 ft 499 kts 202°
2026-05-05 07:54 12.27182 100.21900 24205 ft 500 kts 202°
2026-05-05 07:54 12.23943 100.20584 24401 ft 501 kts 202°
2026-05-05 07:54 12.20693 100.19264 24588 ft 503 kts 202°
2026-05-05 07:55 12.17439 100.17943 24787 ft 504 kts 202°
2026-05-05 07:55 12.14172 100.16616 25018 ft 504 kts 202°
2026-05-05 07:55 12.10908 100.15292 25281 ft 503 kts 202°
2026-05-05 07:55 12.07701 100.13991 25564 ft 502 kts 202°
2026-05-05 07:56 12.04456 100.12675 25843 ft 501 kts 202°
2026-05-05 07:56 12.01217 100.11360 26102 ft 500 kts 202°
2026-05-05 07:56 11.97977 100.10045 26364 ft 499 kts 202°
2026-05-05 07:56 11.94748 100.08735 26655 ft 498 kts 202°
2026-05-05 07:57 11.91531 100.07434 26930 ft 497 kts 202°
2026-05-05 07:57 11.88319 100.06133 27198 ft 496 kts 202°
2026-05-05 07:57 11.85110 100.04834 27462 ft 496 kts 202°
2026-05-05 07:57 11.81905 100.03534 27722 ft 495 kts 202°
2026-05-05 07:58 11.78704 100.02239 27994 ft 495 kts 202°
2026-05-05 07:58 11.75499 100.00942 28258 ft 494 kts 202°
2026-05-05 07:58 11.72349 99.99668 28547 ft 493 kts 202°
2026-05-05 07:58 11.69164 99.98380 28841 ft 492 kts 202°
2026-05-05 07:59 11.65973 99.97091 29134 ft 491 kts 202°
2026-05-05 07:59 11.62801 99.95809 29414 ft 490 kts 202°
2026-05-05 07:59 11.59639 99.94529 29708 ft 489 kts 202°
2026-05-05 07:59 11.56477 99.93250 29987 ft 488 kts 202°
2026-05-05 08:00 11.53323 99.91977 30222 ft 487 kts 202°
2026-05-05 08:00 11.50172 99.90704 30464 ft 486 kts 202°
2026-05-05 08:00 11.47025 99.89433 30710 ft 485 kts 202°
2026-05-05 08:00 11.43887 99.88166 30955 ft 485 kts 202°
2026-05-05 08:01 11.40751 99.86900 31212 ft 484 kts 202°
2026-05-05 08:01 11.37629 99.85640 31477 ft 483 kts 202°
2026-05-05 08:01 11.34506 99.84381 31734 ft 482 kts 202°
2026-05-05 08:01 11.31431 99.83140 31982 ft 481 kts 202°
2026-05-05 08:02 11.28314 99.81883 32196 ft 481 kts 202°
2026-05-05 08:02 11.25204 99.80629 32426 ft 481 kts 203°
2026-05-05 08:02 11.22093 99.79374 32668 ft 481 kts 202°
2026-05-05 08:02 11.18990 99.78123 32909 ft 480 kts 202°
2026-05-05 08:03 11.15883 99.76870 33145 ft 479 kts 202°
2026-05-05 08:03 11.12744 99.75732 33395 ft 478 kts 198°
2026-05-05 08:03 11.09565 99.74730 33662 ft 476 kts 197°
2026-05-05 08:03 11.06398 99.73742 33847 ft 477 kts 197°
2026-05-05 08:04 11.00069 99.71777 33857 ft 474 kts 197°
2026-05-05 08:04 10.93784 99.69822 33836 ft 475 kts 197°
2026-05-05 08:05 10.87468 99.67846 33842 ft 475 kts 197°
2026-05-05 08:05 10.81152 99.65872 33842 ft 474 kts 197°
2026-05-05 08:06 10.74835 99.63896 33839 ft 476 kts 197°
2026-05-05 08:06 10.68496 99.61912 33842 ft 476 kts 197°
2026-05-05 08:07 10.62157 99.59933 33838 ft 476 kts 197°
2026-05-05 08:07 10.55826 99.57956 33843 ft 476 kts 197°
2026-05-05 08:08 10.49492 99.55974 33844 ft 476 kts 197°
2026-05-05 08:08 10.43201 99.54007 33844 ft 476 kts 197°
2026-05-05 08:09 10.36826 99.52019 33846 ft 480 kts 197°
2026-05-05 08:09 10.30437 99.50027 33843 ft 480 kts 196°
2026-05-05 08:10 10.24039 99.48030 33844 ft 480 kts 197°
2026-05-05 08:10 10.17690 99.46050 33845 ft 480 kts 196°
2026-05-05 08:11 10.11299 99.44062 33835 ft 480 kts 197°
2026-05-05 08:11 10.04917 99.42074 33836 ft 481 kts 196°
2026-05-05 08:12 9.98501 99.40076 33835 ft 482 kts 197°
2026-05-05 08:12 9.92088 99.38077 33834 ft 482 kts 196°
2026-05-05 08:13 9.85664 99.36081 33843 ft 482 kts 197°
2026-05-05 08:13 9.82520 99.35104 33662 ft 475 kts 196°
2026-05-05 08:13 9.79339 99.34115 33290 ft 480 kts 196°
2026-05-05 08:14 9.76132 99.33117 33012 ft 483 kts 196°
2026-05-05 08:14 9.72913 99.32117 32754 ft 485 kts 196°
2026-05-05 08:14 9.69679 99.31115 32497 ft 486 kts 196°
2026-05-05 08:14 9.66428 99.30108 32254 ft 489 kts 196°
2026-05-05 08:15 9.63166 99.29100 32017 ft 491 kts 196°
2026-05-05 08:15 9.59896 99.28084 31779 ft 491 kts 196°
2026-05-05 08:15 9.56620 99.27066 31542 ft 491 kts 196°
2026-05-05 08:15 9.53350 99.26048 31303 ft 492 kts 196°
2026-05-05 08:16 9.50077 99.25031 31068 ft 492 kts 196°
2026-05-05 08:16 9.46801 99.24015 30836 ft 493 kts 196°
2026-05-05 08:16 9.43563 99.23009 30615 ft 493 kts 195°
2026-05-05 08:16 9.40283 99.21989 30382 ft 493 kts 196°
2026-05-05 08:17 9.37005 99.20969 30091 ft 490 kts 195°
2026-05-05 08:17 9.33762 99.19962 29426 ft 485 kts 195°
2026-05-05 08:17 9.30544 99.18963 28645 ft 481 kts 195°
2026-05-05 08:17 9.27357 99.17973 27919 ft 477 kts 195°
2026-05-05 08:18 9.24190 99.16992 27228 ft 473 kts 195°
2026-05-05 08:18 9.21061 99.16025 26549 ft 469 kts 195°
2026-05-05 08:18 9.17948 99.15060 25876 ft 465 kts 195°
2026-05-05 08:18 9.14925 99.14072 25245 ft 461 kts 199°
2026-05-05 08:19 9.12039 99.12664 24580 ft 458 kts 211°
2026-05-05 08:19 9.09462 99.10773 23941 ft 455 kts 218°
2026-05-05 08:19 9.07010 99.08744 23275 ft 452 kts 219°
2026-05-05 08:19 9.04596 99.06719 22534 ft 449 kts 219°
2026-05-05 08:20 9.02224 99.04742 21819 ft 445 kts 219°
2026-05-05 08:20 8.99841 99.02765 21131 ft 441 kts 219°
2026-05-05 08:20 8.97471 99.00817 20503 ft 437 kts 218°
2026-05-05 08:20 8.95121 98.98893 19881 ft 432 kts 218°
2026-05-05 08:21 8.92797 98.96988 19296 ft 427 kts 218°
2026-05-05 08:21 8.90498 98.95112 18726 ft 422 kts 218°
2026-05-05 08:21 8.88221 98.93251 18175 ft 417 kts 218°
2026-05-05 08:21 8.85980 98.91418 17585 ft 412 kts 218°
2026-05-05 08:22 8.83761 98.89613 17012 ft 406 kts 218°
2026-05-05 08:22 8.81574 98.87827 16432 ft 401 kts 218°
2026-05-05 08:22 8.79419 98.86062 15901 ft 396 kts 218°
2026-05-05 08:22 8.77287 98.84319 15390 ft 394 kts 218°
2026-05-05 08:23 8.75142 98.82575 14877 ft 395 kts 217°
2026-05-05 08:23 8.72997 98.80830 14359 ft 396 kts 218°
2026-05-05 08:23 8.70851 98.79077 13849 ft 397 kts 218°
2026-05-05 08:23 8.68703 98.77325 13299 ft 397 kts 217°
2026-05-05 08:24 8.66547 98.75568 12748 ft 397 kts 217°
2026-05-05 08:24 8.64417 98.73837 12302 ft 389 kts 217°
2026-05-05 08:24 8.62356 98.72164 11849 ft 381 kts 217°
2026-05-05 08:24 8.60300 98.70489 11391 ft 375 kts 217°
2026-05-05 08:25 8.58289 98.68853 11084 ft 365 kts 217°
2026-05-05 08:25 8.56344 98.67274 10882 ft 352 kts 217°
2026-05-05 08:25 8.54474 98.65752 10710 ft 339 kts 217°
2026-05-05 08:25 8.52668 98.64283 10565 ft 327 kts 217°
2026-05-05 08:26 8.50936 98.62850 10427 ft 316 kts 219°
2026-05-05 08:26 8.49531 98.61228 10214 ft 309 kts 237°
2026-05-05 08:26 8.48466 98.59333 10066 ft 310 kts 240°
2026-05-05 08:26 8.47431 98.57424 9945 ft 309 kts 240°
2026-05-05 08:27 8.46387 98.55528 9826 ft 309 kts 239°
2026-05-05 08:27 8.45325 98.53646 9709 ft 308 kts 239°
2026-05-05 08:27 8.44605 98.52379 9631 ft 308 kts 239°
2026-05-05 08:27 8.43550 98.50536 9451 ft 304 kts 239°
2026-05-05 08:28 8.42492 98.48687 9045 ft 303 kts 239°
2026-05-05 08:28 8.41434 98.46843 8646 ft 303 kts 239°
2026-05-05 08:28 8.40381 98.45010 8268 ft 301 kts 238°
2026-05-05 08:28 8.39332 98.43185 7904 ft 300 kts 239°
2026-05-05 08:29 8.38288 98.41367 7537 ft 298 kts 238°
2026-05-05 08:29 8.37248 98.39561 7178 ft 296 kts 239°
2026-05-05 08:29 8.36214 98.37766 6828 ft 295 kts 238°
2026-05-05 08:30 8.34145 98.34218 6084 ft 291 kts 234°
2026-05-05 08:30 8.32945 98.32584 5652 ft 288 kts 230°
2026-05-05 08:30 8.31709 98.31007 5207 ft 286 kts 230°
2026-05-05 08:30 8.30488 98.29464 4938 ft 276 kts 229°
2026-05-05 08:31 8.29315 98.27980 4759 ft 264 kts 230°
2026-05-05 08:31 8.28167 98.26550 4475 ft 258 kts 224°
2026-05-05 08:31 8.26778 98.25438 4110 ft 254 kts 211°
2026-05-05 08:31 8.25311 98.24497 3754 ft 252 kts 210°
2026-05-05 08:32 8.23826 98.23567 3395 ft 250 kts 210°
2026-05-05 08:32 8.22348 98.22644 3075 ft 249 kts 210°
2026-05-05 08:32 8.20875 98.21729 2978 ft 248 kts 210°
2026-05-05 08:32 8.19406 98.20818 2971 ft 248 kts 210°
2026-05-05 08:33 8.17932 98.19907 2980 ft 248 kts 210°
2026-05-05 08:33 8.16462 98.18999 2987 ft 244 kts 210°
2026-05-05 08:33 8.15034 98.18218 2974 ft 223 kts 194°
2026-05-05 08:33 8.13572 98.18155 2971 ft 208 kts 165°
2026-05-05 08:34 8.12185 98.18564 2984 ft 207 kts 160°
2026-05-05 08:34 8.10950 98.19271 2983 ft 205 kts 131°
2026-05-05 08:34 8.10144 98.20456 2989 ft 205 kts 115°
2026-05-05 08:34 8.09844 98.21812 2794 ft 197 kts 88°
2026-05-05 08:35 8.10153 98.23129 2328 ft 191 kts 75°
2026-05-05 08:35 8.10499 98.24370 1829 ft 174 kts 76°
2026-05-05 08:35 8.10749 98.25519 1425 ft 158 kts 82°
2026-05-05 08:35 8.10845 98.26547 1018 ft 141 kts 87°
2026-05-05 08:36 8.10925 98.27517 582 ft 139 kts 85°
2026-05-05 08:36 8.11029 98.28480 376 ft 138 kts 85°
2026-05-05 08:36 8.11115 98.29442 208 ft 137 kts 84°
2026-05-05 08:36 8.11201 98.30393 48 ft 136 kts 85°
2026-05-05 08:37 8.11284 98.31285 37 ft 117 kts 84°
2026-05-05 08:37 8.11344 98.31946 62 ft 69 kts 84°
2026-05-05 08:37 8.11362 98.32313 74 ft 48 kts 105°
2026-05-05 08:37 8.11309 98.32425 83 ft 15 kts 150°
2026-05-05 08:38 8.11248 98.32351 82 ft 17 kts 272°
2026-05-05 08:38 8.11234 98.32176 72 ft 38 kts 263°
2026-05-05 08:38 8.11203 98.31890 58 ft 41 kts 264°
2026-05-05 08:38 8.11176 98.31599 47 ft 42 kts 268°
2026-05-05 08:39 8.11150 98.31305 38 ft 43 kts 265°
2026-05-05 08:39 8.11123 98.31009 35 ft 37 kts 261°
2026-05-05 08:39 8.11061 98.30806 34 ft 7 kts 259°
2026-05-05 08:39 8.11051 98.30753 34 ft 9 kts 259°
2026-05-05 08:40 8.11045 98.30704 34 ft 0 kts 263°
2026-05-05 08:40 8.11043 98.30695 34 ft 5 kts 250°
2026-05-05 08:40 8.11005 98.30682 33 ft 7 kts 173°
2026-05-05 08:40 8.10986 98.30684 33 ft 0 kts 173°